Comanche, TX

1:30 PM CST on February 26, 2017 (GMT -0600)
Comanche

Weather History for KMKN - October, 2012

Change the Weather History Date:

Saturday, October 20, 2012

  Actual Average (KSEP) Record (KSEP)
Temperature  
Mean Temperature 72 °F -  
Max Temperature 89 °F 75 °F 91 °F (1979)
Min Temperature 55 °F 51 °F 32 °F (1976)
Cooling Degree Days 7    
Growing Degree Days 22 (Base 50)    
Moisture  
Dew Point 53 °F    
Average Humidity 53    
Maximum Humidity 78    
Minimum Humidity 36    
Precipitation  
Precipitation 0.00 in - - ()
Sea Level Pressure  
Sea Level Pressure 29.83 in    
Wind  
Wind Speed 11 mph (SSW)    
Max Wind Speed 20 mph    
Max Gust Speed 29 mph    
Visibility 10 miles    
Events      
Averages and records for this station are not official NWS values.
T = Trace of Precipitation, MM = Missing Value Source: NWS Daily Summary

Daily Weather History Graph

Daily Weather History Graph

Search for Another Location

Airport or City:

Trip Planner

Search our weather history database for the weather conditions in past years. The results will help you decide how hot, cold, wet, or windy it might be!

Date:

Astronomy

Oct. 20, 2012 Rise Set
Actual Time 7:41 AM CDT 6:55 PM CDT
Civil Twilight 7:17 AM CDT 7:20 PM CDT
Nautical Twilight 6:48 AM CDT 7:49 PM CDT
Astronomical Twilight 6:20 AM CDT 8:17 PM CDT
Moon 1:08 PM CDT (10/20) 11:52 PM CDT (10/20)
Length of Visible Light 12h 03m
Length of Day
11h 14m
Waxing Crescent, 34% of the Moon is Illuminated
Oct 20
Waxing Crescent
Oct 21
First Quarter
Oct 29
Full
Nov 6
Last Quarter
Nov 13
New

Hourly Weather History & Observations

Time (CDT) Temp. Heat Index Dew Point Humidity Pressure Visibility Wind Dir Wind Speed Gust Speed Precip Events Conditions
12:15 AM 55.4 °F - 35.6 °F 47% 29.92 in 10.0 mi SSW 6.9 mph - N/A   Clear
12:35 AM 57.2 °F - 35.6 °F 44% 29.92 in 10.0 mi South 8.1 mph - N/A   Clear
12:55 AM 57.2 °F - 35.6 °F 44% 29.92 in 10.0 mi South 5.8 mph - N/A   Clear
1:15 AM 57.2 °F - 35.6 °F 44% 29.91 in 10.0 mi South 6.9 mph - N/A   Clear
1:35 AM 59.0 °F - 35.6 °F 42% 29.91 in 10.0 mi South 9.2 mph - N/A   Clear
1:55 AM 60.8 °F - 35.6 °F 39% 29.90 in 10.0 mi South 10.4 mph - N/A   Clear
2:15 AM 60.8 °F - 33.8 °F 36% 29.90 in 10.0 mi South 8.1 mph - N/A   Clear
2:35 AM 59.0 °F - 35.6 °F 42% 29.90 in 10.0 mi South 9.2 mph - N/A   Clear
2:55 AM 59.0 °F - 35.6 °F 42% 29.89 in 10.0 mi South 8.1 mph - N/A   Clear
3:15 AM 59.0 °F - 35.6 °F 42% 29.89 in 10.0 mi South 8.1 mph - N/A   Clear
3:35 AM 60.8 °F - 35.6 °F 39% 29.89 in 10.0 mi South 10.4 mph - N/A   Clear
3:55 AM 60.8 °F - 35.6 °F 39% 29.87 in 10.0 mi South 11.5 mph - N/A   Clear
4:15 AM 60.8 °F - 37.4 °F 42% 29.87 in 10.0 mi South 8.1 mph - N/A   Clear
4:35 AM 62.6 °F - 41.0 °F 45% 29.87 in 10.0 mi South 10.4 mph - N/A   Clear
4:55 AM 62.6 °F - 41.0 °F 45% 29.87 in 10.0 mi South 6.9 mph - N/A   Clear
5:15 AM 62.6 °F - 41.0 °F 45% 29.87 in 10.0 mi South 9.2 mph - N/A   Clear
5:35 AM 62.6 °F - 41.0 °F 45% 29.87 in 10.0 mi South 9.2 mph - N/A   Clear
5:55 AM 60.8 °F - 41.0 °F 48% 29.87 in 10.0 mi South 8.1 mph - N/A   Clear
6:15 AM 60.8 °F - 41.0 °F 48% 29.87 in 10.0 mi South 9.2 mph - N/A   Clear
6:35 AM 60.8 °F - 42.8 °F 52% 29.87 in 10.0 mi South 9.2 mph - N/A   Clear
6:55 AM 60.8 °F - 42.8 °F 52% 29.87 in 10.0 mi South 8.1 mph - N/A   Clear
7:15 AM 60.8 °F - 42.8 °F 52% 29.87 in 10.0 mi South 8.1 mph - N/A   Clear
7:35 AM 60.8 °F - 44.6 °F 55% 29.87 in 10.0 mi South 6.9 mph - N/A   Clear
7:55 AM 59.0 °F - 44.6 °F 59% 29.88 in 10.0 mi South 4.6 mph - N/A   Clear
8:15 AM 59.0 °F - 46.4 °F 63% 29.87 in 10.0 mi South 5.8 mph - N/A   Clear
8:35 AM 60.8 °F - 50.0 °F 68% 29.88 in 10.0 mi South 5.8 mph - N/A   Clear
8:55 AM 62.6 °F - 50.0 °F 63% 29.89 in 10.0 mi South 6.9 mph - N/A   Scattered Clouds
9:15 AM 66.2 °F - 53.6 °F 64% 29.89 in 10.0 mi South 10.4 mph 16.1 mph N/A   Scattered Clouds
9:35 AM 68.0 °F - 55.4 °F 64% 29.89 in 10.0 mi South 13.8 mph 20.7 mph N/A   Mostly Cloudy
9:55 AM 66.2 °F - 59.0 °F 78% 29.89 in 10.0 mi SSW 17.3 mph 26.5 mph N/A   Overcast
10:15 AM 68.0 °F - 60.8 °F 78% 29.89 in 10.0 mi SW 18.4 mph 27.6 mph N/A   Overcast
10:35 AM 69.8 °F - 60.8 °F 73% 29.89 in 10.0 mi SSW 17.3 mph 25.3 mph N/A   Overcast
10:55 AM 69.8 °F - 60.8 °F 73% 29.88 in 10.0 mi SSW 13.8 mph 28.8 mph N/A   Overcast
11:15 AM 71.6 °F - 60.8 °F 69% 29.89 in 10.0 mi SSW 15.0 mph 24.2 mph N/A   Overcast
11:35 AM 73.4 °F - 62.6 °F 69% 29.88 in 10.0 mi SSW 19.6 mph 26.5 mph N/A   Overcast
11:55 AM 75.2 °F - 62.6 °F 65% 29.87 in 10.0 mi SSW 16.1 mph - N/A   Scattered Clouds
12:15 PM 77.0 °F - 62.6 °F 61% 29.86 in 10.0 mi SSW 12.7 mph 26.5 mph N/A   Clear
12:35 PM 78.8 °F - 62.6 °F 57% 29.85 in 10.0 mi SSW 17.3 mph 24.2 mph N/A   Clear
12:55 PM 80.6 °F 81.8 °F 62.6 °F 54% 29.85 in 10.0 mi SSW 12.7 mph 24.2 mph N/A   Clear
1:15 PM 82.4 °F 83.4 °F 62.6 °F 51% 29.83 in 10.0 mi SW 17.3 mph 21.9 mph N/A   Clear
1:35 PM 82.4 °F 82.9 °F 60.8 °F 48% 29.82 in 10.0 mi SSW 17.3 mph 25.3 mph N/A   Clear
1:55 PM 84.2 °F 85.0 °F 62.6 °F 48% 29.81 in 10.0 mi SSW 15.0 mph 23.0 mph N/A   Clear
2:15 PM 86.0 °F 86.6 °F 62.6 °F 45% 29.80 in 10.0 mi South 10.4 mph 18.4 mph N/A   Clear
2:35 PM 86.0 °F 86.6 °F 62.6 °F 45% 29.78 in 10.0 mi SW 13.8 mph 18.4 mph N/A   Clear
2:55 PM 87.8 °F 87.6 °F 60.8 °F 40% 29.77 in 10.0 mi SSW 16.1 mph 23.0 mph N/A   Clear
3:15 PM 87.8 °F 87.6 °F 60.8 °F 40% 29.76 in 10.0 mi SSW 16.1 mph 21.9 mph N/A   Clear
3:35 PM 87.8 °F 87.6 °F 60.8 °F 40% 29.75 in 10.0 mi SSW 13.8 mph 23.0 mph N/A   Clear
3:55 PM 87.8 °F 87.6 °F 60.8 °F 40% 29.75 in 10.0 mi SSW 12.7 mph 21.9 mph N/A   Clear
4:15 PM 89.6 °F 89.5 °F 60.8 °F 38% 29.75 in 10.0 mi SW 12.7 mph 20.7 mph N/A   Clear
4:35 PM 89.6 °F 89.5 °F 60.8 °F 38% 29.74 in 10.0 mi SSW 18.4 mph 24.2 mph N/A   Clear
4:55 PM 87.8 °F 87.6 °F 60.8 °F 40% 29.74 in 10.0 mi SSW 13.8 mph 20.7 mph N/A   Clear
5:15 PM 87.8 °F 87.6 °F 60.8 °F 40% 29.74 in 10.0 mi SSW 17.3 mph 21.9 mph N/A   Clear
5:35 PM 87.8 °F 87.1 °F 59.0 °F 38% 29.75 in 10.0 mi SSW 15.0 mph 23.0 mph N/A   Clear
5:55 PM 86.0 °F 86.1 °F 60.8 °F 43% 29.75 in 10.0 mi South 10.4 mph - N/A   Clear
6:15 PM 82.4 °F 82.9 °F 60.8 °F 48% 29.75 in 10.0 mi South 10.4 mph - N/A   Clear
6:35 PM 82.4 °F 83.4 °F 62.6 °F 51% 29.75 in 10.0 mi South 12.7 mph - N/A   Clear
6:55 PM 80.6 °F 81.8 °F 62.6 °F 54% 29.75 in 10.0 mi South 11.5 mph - N/A   Clear
7:15 PM 80.6 °F 81.8 °F 62.6 °F 54% 29.75 in 10.0 mi South 13.8 mph 21.9 mph N/A   Clear
7:35 PM 78.8 °F - 64.4 °F 61% 29.76 in 10.0 mi South 17.3 mph 25.3 mph N/A   Clear
7:55 PM 78.8 °F - 64.4 °F 61% 29.77 in 10.0 mi South 15.0 mph 26.5 mph N/A   Clear
8:15 PM 78.8 °F - 62.6 °F 57% 29.77 in 10.0 mi South 17.3 mph 23.0 mph N/A   Clear
8:35 PM 77.0 °F - 62.6 °F 61% 29.77 in 10.0 mi SSW 16.1 mph 26.5 mph N/A   Clear
8:55 PM 77.0 °F - 62.6 °F 61% 29.78 in 10.0 mi South 15.0 mph 24.2 mph N/A   Clear
9:15 PM 77.0 °F - 64.4 °F 65% 29.79 in 10.0 mi South 15.0 mph 20.7 mph N/A   Clear
9:35 PM 75.2 °F - 64.4 °F 69% 29.79 in 10.0 mi South 13.8 mph 18.4 mph N/A   Clear
10:15 PM 75.2 °F - 64.4 °F 69% 29.79 in 10.0 mi South 16.1 mph 20.7 mph N/A   Clear
10:35 PM 75.2 °F - 64.4 °F 69% 29.79 in 10.0 mi South 16.1 mph 20.7 mph N/A   Clear
10:55 PM 75.2 °F - 64.4 °F 69% 29.79 in 10.0 mi South 13.8 mph 23.0 mph N/A   Clear
11:15 PM 75.2 °F - 64.4 °F 69% 29.80 in 10.0 mi South 15.0 mph 20.7 mph N/A   Clear
11:35 PM 75.2 °F - 64.4 °F 69% 29.79 in 10.0 mi South 16.1 mph 24.2 mph N/A   Clear
11:55 PM 75.2 °F - 64.4 °F 69% 29.79 in 10.0 mi SSW 16.1 mph 21.9 mph N/A   Clear